Location: Asheville, NC
(35.6000°N, 82.5500°W)
Time: 09:26:35
(UTC-04:00)

Vanguard 2 Rocket - Pass Details

Date: 07 December 2017
Orbit: 553 x 3327 km, 32.9° (Epoch: 16 July)

Event Time Altitude Azimuth Distance (km) Brightness Sun altitude
Exits shadow 05:26:13 21° 246° (WSW) 4,409 9.9 -23.8°
Maximum altitude 05:29:28 22° 230° (SW) 4,039 9.8 -23.2°
Drops below altitude 10° 05:37:46 10° 184° (S) 4,123 10.3 -21.5°
Sets 05:41:30 0° 169° (S) 4,683 10.9 -20.8°
